Latest Weather Observations for Ernabella/Pukatja

IDD60801

Issued at 2:01 pm CST Thursday 15 November 2018 (issued every 10 minutes, with the page automatically refreshed every 10 minutes)

About weather observations | Map of weather stations | Latest weather observations for NT | Other Formats
Station Details ID: 016097 Name: PUKATJA Lat: -26.26 Lon: 132.18 Height: 703.2 m
Data from the previous 72 hours. | See also: Recent months at Ernabella/Pukatja
Date/Time
CST
Temp
°C
App
Temp
°C
Dew
Point
°C
Rel
Hum
%
Delta-T
°C
Wind Press
QNH
hPa
Press
MSL
hPa
Rain since
9am
mm
Dir  Spd
km/h
Gust
km/h
Spd
kts
Gust
kts
15/02:00pm 29.9 26.8 8.9 27 12.0 ENE 15 28 8 15 1019.6 1015.5 0.0
15/01:30pm 31.0 28.1 9.8 27 12.3 NE 15 22 8 12 1020.1 1015.9 0.0
15/01:00pm 31.4 28.3 10.2 27 12.5 E 17 26 9 14 1020.6 1016.4 0.0
15/12:30pm 29.5 25.9 8.5 27 11.9 ENE 17 26 9 14 1021.0 1016.9 0.0
15/12:00pm 29.6 25.6 9.2 28 11.7 ENE 20 35 11 19 1021.6 1017.4 0.0
15/11:30am 28.5 24.5 8.2 28 11.4 ESE 19 30 10 16 1021.9 1017.7 0.0
15/11:00am 28.1 23.8 7.9 28 11.2 E 20 33 11 18 1022.3 1018.2 0.0
15/10:30am 28.2 23.7 8.5 29 11.1 ESE 22 32 12 17 1022.4 1018.3 0.0
15/10:00am 26.9 22.1 7.4 29 10.7 ESE 22 32 12 17 1022.5 1018.4 0.0
15/09:30am 25.6 20.6 6.3 29 10.3 ESE 22 32 12 17 1022.5 1018.4 0.0
15/09:00am 24.9 19.6 6.6 31 9.8 ESE 24 33 13 18 1022.7 1018.6 0.0
15/08:30am 23.9 18.8 6.2 32 9.3 ESE 22 32 12 17 1022.6 1018.5 0.0
15/08:00am 22.7 17.7 6.5 35 8.5 ESE 22 28 12 15 1022.7 1018.6 0.0
15/07:30am 22.0 16.6 6.3 36 8.2 ESE 24 30 13 16 1022.4 1018.3 0.0
15/07:00am 21.3 15.8 6.0 37 8.0 ESE 24 33 13 18 1022.0 1017.9 0.0
15/06:30am 20.1 15.3 5.7 39 7.4 ESE 20 30 11 16 1021.9 1017.7 0.0
15/06:00am 19.8 15.0 5.8 40 7.2 ESE 20 26 11 14 1021.6 1017.4 0.0
15/05:30am 19.7 14.9 5.7 40 7.1 ESE 20 28 11 15 1021.2 1017.1 0.0
15/05:00am 19.8 15.0 5.5 39 7.3 ESE 20 28 11 15 1020.8 1016.7 0.0
15/04:30am 20.3 14.6 5.1 37 7.7 ESE 24 35 13 19 1020.7 1016.6 0.0
15/04:00am 20.7 15.0 5.1 36 7.9 SE 24 33 13 18 1020.6 1016.4 0.0
15/03:30am 20.9 15.2 4.9 35 8.1 SE 24 44 13 24 1020.2 1016.0 0.0
15/03:00am 21.1 15.4 5.1 35 8.2 SE 24 35 13 19 1019.8 1015.7 0.0
15/02:30am 21.4 16.2 5.3 35 8.2 SE 22 32 12 17 1019.8 1015.7 0.0
15/02:00am 21.8 17.1 6.1 36 8.2 SE 20 32 11 17 1019.7 1015.6 0.0
15/01:30am 22.3 16.9 6.5 36 8.3 SE 24 32 13 17 1019.8 1015.7 0.0
15/01:00am 22.5 17.8 7.9 39 7.9 SE 22 32 12 17 1019.8 1015.7 0.0
15/12:30am 22.9 18.9 8.2 39 8.0 SE 19 30 10 16 1020.0 1015.8 0.0
15/12:00am 23.2 19.1 8.5 39 8.1 SE 20 30 11 16 1019.8 1015.7 0.0
 
Date/Time
CST
Temp
°C
App
Temp
°C
Dew
Point
°C
Rel
Hum
%
Delta-T
°C
Wind Press
QNH
hPa
Press
MSL
hPa
Rain since
9am
mm
Dir  Spd
km/h
Gust
km/h
Spd
kts
Gust
kts
14/11:30pm 23.6 19.5 8.5 38 8.3 SE 20 30 11 16 1019.8 1015.7 0.0
14/11:00pm 24.0 19.9 8.8 38 8.4 SE 20 28 11 15 1019.8 1015.7 0.0
14/10:30pm 24.5 19.8 9.3 38 8.5 SE 24 35 13 19 1019.6 1015.5 0.0
14/10:00pm 24.8 20.6 9.9 39 8.5 SE 22 35 12 19 1019.5 1015.4 0.0
14/09:30pm 25.2 21.4 9.9 38 8.7 SE 20 30 11 16 1019.2 1015.0 0.0
14/09:00pm 25.8 22.1 10.0 37 9.0 SE 20 35 11 19 1018.8 1014.6 0.0
14/08:30pm 26.0 22.9 10.2 37 9.1 SE 17 24 9 13 1018.5 1014.3 0.0
14/08:00pm 26.5 22.8 10.2 36 9.4 SE 20 30 11 16 1018.0 1013.8 0.0
14/07:30pm 26.9 22.8 10.2 35 9.6 SE 22 32 12 17 1017.5 1013.3 0.0
14/07:00pm 27.5 23.8 10.2 34 10.0 SE 20 32 11 17 1017.2 1013.0 0.0
14/06:30pm 28.2 23.8 10.4 33 10.3 SE 24 35 13 19 1017.0 1012.8 0.0
14/06:00pm 28.9 25.3 10.6 32 10.7 SE 20 30 11 16 1016.8 1012.7 0.0
14/05:30pm 29.2 25.3 10.8 32 10.8 SSE 22 35 12 19 1016.7 1012.5 0.0
14/05:00pm 29.1 25.3 11.2 33 10.6 SE 22 32 12 17 1016.6 1012.4 0.0
14/04:30pm 28.7 25.2 10.8 33 10.5 SSE 20 28 11 15 1016.5 1012.3 0.0
14/04:00pm 29.5 26.1 11.1 32 10.9 SSE 20 37 11 20 1016.6 1012.4 0.0
14/03:30pm 29.1 26.3 11.2 33 10.6 ESE 17 28 9 15 1016.5 1012.3 0.0
14/03:00pm 30.3 28.1 12.2 33 10.9 S 15 28 8 15 1016.6 1012.4 0.0
14/02:30pm 30.6 27.8 11.5 30 11.4 SE 17 32 9 17 1016.8 1012.7 0.0
14/02:00pm 29.5 26.7 11.5 33 10.7 SSE 17 30 9 16 1017.2 1013.0 0.0
14/01:30pm 29.9 28.5 12.3 33 10.6 SSE 11 22 6 12 1017.5 1013.3 0.0
14/01:00pm 29.8 26.7 12.3 34 10.6 SSE 20 32 11 17 1017.7 1013.5 0.0
14/12:30pm 28.3 25.4 12.2 37 9.6 SSE 19 30 10 16 1017.9 1013.7 0.0
14/12:00pm 27.5 24.5 11.9 38 9.3 S 19 28 10 15 1018.2 1014.1 0.0
14/11:30am 27.5 24.4 12.3 39 9.1 S 20 35 11 19 1018.7 1014.5 0.0
14/11:00am 26.1 23.0 12.2 42 8.2 SSE 20 30 11 16 1018.8 1014.6 0.0
14/10:30am 25.0 21.5 12.2 44 7.5 S 22 30 12 16 1019.0 1014.8 0.0
14/10:00am 24.7 22.2 12.3 46 7.3 SSE 17 26 9 14 1019.0 1014.8 0.0
14/09:30am 23.8 20.8 12.1 48 6.9 S 19 28 10 15 1019.1 1014.9 0.0
14/09:00am 22.6 20.3 11.7 50 6.3 SSE 15 24 8 13 1019.1 1014.9 0.0
14/08:30am 21.5 18.8 11.8 54 5.6 S 17 26 9 14 1019.2 1015.0 0.0
14/08:00am 20.4 18.0 11.3 56 5.2 S 15 28 8 15 1019.0 1014.8 0.0
14/07:30am 19.9 15.8 11.4 58 4.8 SSE 24 33 13 18 1018.7 1014.5 0.0
14/07:00am 18.9 15.6 11.5 62 4.2 SSE 20 32 11 17 1018.3 1014.2 0.0
14/06:30am 19.2 15.8 11.3 60 4.5 S 20 28 11 15 1018.0 1013.8 0.0
14/06:00am 18.7 15.5 11.3 62 4.2 SSE 19 28 10 15 1017.5 1013.3 0.0
14/05:30am 18.9 16.5 11.5 62 4.2 SSW 15 26 8 14 1017.4 1013.2 0.0
14/05:00am 18.9 16.1 11.5 62 4.2 S 17 28 9 15 1017.0 1012.8 0.0
14/04:30am 19.1 16.3 11.4 61 4.4 S 17 26 9 14 1016.5 1012.3 0.0
14/04:00am 19.6 17.2 11.4 59 4.7 S 15 22 8 12 1016.3 1012.1 0.0
14/03:30am 19.8 17.1 11.6 59 4.7 SSW 17 24 9 13 1016.1 1011.9 0.0
14/03:00am 20.1 16.9 11.3 57 5.0 SSW 19 26 10 14 1015.8 1011.6 0.0
14/02:30am 20.4 17.3 11.6 57 5.0 SSW 19 30 10 16 1015.9 1011.7 0.0
14/02:00am 20.4 17.7 11.6 57 5.0 SSW 17 26 9 14 1016.0 1011.8 0.0
14/01:30am 20.7 17.5 11.9 57 5.1 SSW 20 30 11 16 1016.2 1012.0 0.0
14/01:00am 21.0 18.0 11.9 56 5.3 SSW 19 28 10 15 1016.0 1011.8 0.0
14/12:30am 21.2 16.8 11.8 55 5.4 SSW 26 33 14 18 1016.2 1012.0 0.0
14/12:00am 21.5 16.8 12.1 55 5.5 S 28 39 15 21 1016.3 1012.1 0.0
 
Date/Time
CST
Temp
°C
App
Temp
°C
Dew
Point
°C
Rel
Hum
%
Delta-T
°C
Wind Press
QNH
hPa
Press
MSL
hPa
Rain since
9am
mm
Dir  Spd
km/h
Gust
km/h
Spd
kts
Gust
kts
13/11:30pm 21.8 16.5 12.4 55 5.5 S 32 48 17 26 1016.2 1012.0 0.0
13/11:00pm 22.2 16.7 12.5 54 5.7 S 33 44 18 24 1016.1 1011.9 0.0
13/10:30pm 22.6 17.1 12.3 52 6.0 S 33 43 18 23 1015.8 1011.6 0.0
13/10:00pm 23.1 17.8 12.4 51 6.3 S 32 41 17 22 1015.6 1011.4 0.0
13/09:30pm 23.8 18.6 12.8 50 6.5 S 32 43 17 23 1015.2 1011.0 0.0
13/09:00pm 24.6 20.0 12.2 46 7.3 S 28 46 15 25 1014.9 1010.7 0.0
13/08:58pm 24.5 19.8 12.1 46 7.3 S 28 46 15 25 1014.9 1010.7 0.0
13/08:30pm 25.1 21.6 12.3 45 7.6 S 22 33 12 18 1014.6 1010.4 0.0
13/08:00pm 25.8 21.2 12.3 43 8.0 S 28 37 15 20 1014.1 1009.8 0.0
13/07:30pm 26.3 22.1 12.4 42 8.3 S 26 35 14 19 1013.6 1009.4 0.0
13/07:00pm 26.9 23.0 12.2 40 8.8 S 24 32 13 17 1013.0 1008.8 0.0
13/06:30pm 27.8 23.2 12.2 38 9.3 S 28 37 15 20 1012.4 1008.1 0.0
13/06:00pm 28.9 24.3 12.3 36 10.0 SW 28 37 15 20 1011.9 1007.7 0.0
13/05:30pm 29.1 24.6 12.5 36 10.0 SW 28 41 15 22 1011.8 1007.6 0.0
13/05:00pm 30.1 26.1 13.0 35 10.5 SW 26 35 14 19 1011.6 1007.3 0.0
13/04:30pm 30.3 27.0 12.7 34 10.7 SSW 22 32 12 17 1011.4 1007.1 0.0
13/04:00pm 30.7 27.8 13.0 33 10.8 SW 20 33 11 18 1011.6 1007.3 0.0
13/03:30pm 30.8 27.5 12.7 33 11.0 SSW 22 35 12 19 1011.6 1007.3 0.0
13/03:00pm 30.2 27.0 13.0 34 10.5 SW 22 32 12 17 1011.9 1007.7 0.0
13/02:30pm 29.7 26.0 12.6 35 10.4 SSW 24 41 13 22 1012.1 1007.9 0.0
13/02:00pm 31.1 28.4 12.9 32 11.1 WSW 19 30 10 16 1012.4 1008.1 0.0
13/01:30pm 30.7 28.8 13.0 33 10.8 SW 15 24 8 13 1012.7 1008.4 0.0
13/01:00pm 29.8 26.8 12.7 35 10.4 SSW 20 33 11 18 1013.0 1008.8 0.0
13/12:30pm 30.1 27.1 12.5 34 10.7 SSW 20 33 11 18 1013.2 1009.0 0.0
13/12:00pm 29.1 26.2 12.9 37 9.8 SW 20 32 11 17 1013.5 1009.3 0.0
13/11:30am 28.8 26.0 13.1 38 9.6 SW 20 30 11 16 1013.7 1009.5 0.0
13/11:00am 28.3 25.4 13.0 39 9.3 SSW 20 26 11 14 1013.9 1009.6 0.0
13/10:30am 27.2 24.6 13.2 42 8.5 SW 19 28 10 15 1014.2 1009.9 0.0
13/10:00am 26.4 23.3 13.5 45 7.8 SW 22 30 12 16 1014.3 1010.1 0.0
13/09:30am 26.1 22.9 13.2 44 7.8 SW 22 30 12 16 1014.3 1010.1 0.0
13/09:00am 25.8 22.9 13.0 45 7.7 SW 20 28 11 15 1014.2 1009.9 0.0
13/08:30am 25.9 23.0 12.4 43 8.0 SSW 19 26 10 14 1014.3 1010.1 0.0
13/08:00am 25.2 22.1 11.7 43 7.9 SW 19 24 10 13 1014.3 1010.1 0.0
13/07:30am 25.0 22.7 11.9 44 7.7 WSW 15 22 8 12 1014.1 1009.8 0.0
13/07:00am 24.1 21.3 11.4 45 7.4 W 17 26 9 14 1013.4 1009.2 0.0
13/06:30am 21.7 19.6 11.1 51 6.1 WSW 13 20 7 11 1013.2 1009.0 0.0
13/06:00am 21.7 19.7 11.4 52 5.9 WSW 13 17 7 9 1013.1 1008.9 0.0
13/05:30am 22.7 20.2 11.1 48 6.7 NW 15 22 8 12 1012.8 1008.5 0.0
13/05:00am 22.3 21.3 11.1 49 6.4 NNW 7 13 4 7 1012.8 1008.5 0.0
13/04:30am 20.2 18.6 10.3 53 5.5 NNE 9 13 5 7 1013.0 1008.8 0.0
13/04:00am 20.0 18.8 10.4 54 5.4 ENE 7 9 4 5 1012.6 1008.3 0.0
13/03:30am 19.9 19.0 10.6 55 5.2 NE 6 7 3 4 1012.8 1008.5 0.0
13/03:00am 19.0 18.1 10.8 59 4.6 SSW 6 9 3 5 1013.2 1009.0 0.0
13/02:30am 19.7 19.8 10.1 54 5.3 CALM 0 0 0 0 1012.8 1008.5 0.0
13/02:00am 20.7 18.6 9.9 50 6.0 ENE 11 17 6 9 1012.9 1008.6 0.0
13/01:30am 21.7 19.6 9.6 46 6.7 SW 11 22 6 12 1013.9 1009.6 0.0
13/01:00am 22.1 18.2 9.6 45 7.0 SW 20 43 11 23 1015.0 1010.8 0.0
13/12:59am 22.3 18.6 9.5 44 7.1 SW 19 43 10 23 1014.9 1010.7 0.0
13/12:30am 23.9 21.3 9.5 40 8.1 N 13 19 7 10 1014.6 1010.4 0.0
13/12:00am 24.3 20.8 8.7 37 8.7 N 17 22 9 12 1014.4 1010.2 0.0
 
Date/Time
CST
Temp
°C
App
Temp
°C
Dew
Point
°C
Rel
Hum
%
Delta-T
°C
Wind Press
QNH
hPa
Press
MSL
hPa
Rain since
9am
mm
Dir  Spd
km/h
Gust
km/h
Spd
kts
Gust
kts
12/11:30pm 24.8 20.5 7.9 34 9.3 N 20 33 11 18 1014.4 1010.2 0.0
12/11:00pm 25.2 21.3 6.9 31 9.9 NNE 17 26 9 14 1014.1 1009.8 0.0
12/10:30pm 24.7 19.8 6.9 32 9.6 NNE 22 30 12 16 1014.0 1009.7 0.0
12/10:00pm 24.5 20.3 7.6 34 9.2 NNE 19 28 10 15 1013.3 1009.1 0.0
12/09:30pm 23.8 21.6 7.8 36 8.7 WNW 9 15 5 8 1015.2 1011.0 0.0
12/09:00pm 22.8 22.2 8.9 41 7.7 SW 2 9 1 5 1014.4 1010.2 0.0
12/08:30pm 23.8 20.3 7.4 35 8.9 WSW 15 20 8 11 1014.2 1009.9 0.0
12/08:00pm 23.6 20.6 7.7 36 8.6 W 13 15 7 8 1013.9 1009.6 0.0
12/07:30pm 24.4 20.8 6.6 32 9.5 SW 15 19 8 10 1013.3 1009.1 0.0
12/07:00pm 24.6 20.6 6.8 32 9.6 SW 17 24 9 13 1012.9 1008.6 0.0
12/06:30pm 24.5 19.6 6.7 32 9.6 SW 22 32 12 17 1012.0 1007.8 0.0
12/06:00pm 24.8 18.4 7.0 32 9.6 SW 30 41 16 22 1012.0 1007.8 0.0
12/05:48pm 25.6 19.5 6.8 30 10.2 SW 28 48 15 26 1012.2 1008.0 0.0
12/05:30pm 27.7 22.0 4.7 23 12.1 SSW 24 35 13 19 1012.0 1007.8 0.0
12/05:00pm 28.7 23.0 4.9 22 12.7 SSW 24 33 13 18 1012.5 1008.2 0.0
12/04:30pm 29.3 24.1 3.3 19 13.5 S 20 32 11 17 1012.1 1007.9 0.0
12/04:00pm 30.5 27.1 1.9 16 14.6 SSE 9 15 5 8 1011.6 1007.3 0.0
12/03:30pm 30.6 26.8 1.9 16 14.7 SSE 11 19 6 10 1011.5 1007.2 0.0
12/03:00pm 31.0 26.8 1.4 15 15.1 SSE 13 22 7 12 1011.6 1007.3 0.0
12/02:30pm 30.0 25.6 0.6 15 14.7 ESE 13 19 7 10 1012.2 1008.0 0.0
12/02:00pm 30.6 25.7 1.9 16 14.7 SE 17 20 9 11 1012.5 1008.2 0.0
12/01:30pm 28.3 24.2 0.1 16 13.8 SSE 11 19 6 10 1013.4 1009.2 0.0

Other Formats:

Comma delimited format used in spreadsheet applications
http://www.bom.gov.au/fwo/IDD60801/IDD60801.94474.axf

JavaScript Object Notation format (JSON) in row-major order
http://www.bom.gov.au/fwo/IDD60801/IDD60801.94474.json